Weather History for Khudzhand, Russia

Change the Weather History Date:

Sunday, February 17, 2013

  Actual Average Record
Temperature  
Mean Temperature 42 °F -  
Max Temperature 51 °F - - ()
Min Temperature 33 °F - - ()
Degree Days  
Heating Degree Days 23    
Moisture  
Dew Point 25 °F    
Average Humidity 55    
Maximum Humidity 81    
Minimum Humidity 26    
Precipitation  
Precipitation 0.00 in - - ()
Sea Level Pressure  
Sea Level Pressure 29.93 in    
Wind  
Wind Speed 14 mph ()    
Max Wind Speed 27 mph    
Max Gust Speed 36 mph    
Visibility 4.7 miles    
Events      
T = Trace of Precipitation, MM = Missing Value Source: Averaged Metar Reports

Daily Weather History Graph

Daily Weather History Graph

Search for Another Location

Airport:

Trip Planner

Search our weather history database for the weather conditions in past years. The results will help you decide how hot, cold, wet, or windy it might be!

Date:

Astronomy

Feb. 17, 2013 Rise Set
Actual Time 8:12 AM YEKT 6:59 PM YEKT
Civil Twilight 7:44 AM YEKT 7:26 PM YEKT
Nautical Twilight 7:12 AM YEKT 7:58 PM YEKT
Astronomical Twilight 6:41 AM YEKT 8:30 PM YEKT
Moon 11:46 AM YEKT (2/17) 1:30 AM YEKT (2/17)
Length of Visible Light 11h 42m
Length of Day
10h 46m
Waxing Crescent, 44% of the Moon is Illuminated
Feb 17
Waxing Crescent
Feb 18
First Quarter
Feb 26
Full
Mar 5
Last Quarter
Mar 12
New

Hourly Weather History & Observations

Time (YEKT) Temp. Windchill Dew Point Humidity Pressure Visibility Wind Dir Wind Speed Gust Speed Precip Events Conditions
12:00 AM 39.2 °F 31.3 °F 30.2 °F 70% 30.01 in - East 13.4 mph - N/A   Partly Cloudy
12:30 AM 41.0 °F 33.6 °F 30.2 °F 65% 30.01 in - East 13.4 mph 20.1 mph N/A   Partly Cloudy
1:00 AM 39.2 °F 31.3 °F 30.2 °F 70% 30.01 in - ENE 13.4 mph 20.1 mph N/A   Partly Cloudy
1:30 AM 39.2 °F 32.2 °F 30.2 °F 70% 30.01 in - ENE 11.2 mph 17.9 mph N/A   Partly Cloudy
2:00 AM 37.4 °F 29.9 °F 30.2 °F 75% 30.01 in - ENE 11.2 mph - N/A   Partly Cloudy
2:30 AM 37.4 °F 29.9 °F 30.2 °F 75% 30.01 in - East 11.2 mph - N/A   Partly Cloudy
3:00 AM 37.4 °F 30.9 °F 30.2 °F 75% 30.01 in - ENE 8.9 mph - N/A   Partly Cloudy
3:30 AM 37.4 °F 29.9 °F 30.2 °F 75% 29.98 in 1.8 mi East 11.2 mph - N/A   Partly Cloudy
4:00 AM 35.6 °F 28.7 °F 30.2 °F 81% 29.98 in 1.7 mi East 8.9 mph - N/A   Scattered Clouds
4:30 AM 35.6 °F 28.7 °F 30.2 °F 81% 29.98 in 1.6 mi East 8.9 mph - N/A   Scattered Clouds
5:00 AM 35.6 °F 26.8 °F 30.2 °F 81% 29.98 in 1.6 mi East 13.4 mph - N/A   Scattered Clouds
5:30 AM 35.6 °F 26.0 °F 30.2 °F 81% 29.95 in 1.6 mi East 15.7 mph - N/A   Scattered Clouds
6:00 AM 35.6 °F 26.0 °F 30.2 °F 81% 29.95 in 1.7 mi East 15.7 mph 22.4 mph N/A   Scattered Clouds
6:30 AM 35.6 °F 26.8 °F 28.4 °F 75% 29.95 in 1.6 mi ENE 13.4 mph - N/A   Scattered Clouds
7:00 AM 35.6 °F 26.8 °F 28.4 °F 75% 29.95 in 1.7 mi East 13.4 mph - N/A   Partly Cloudy
7:30 AM 35.6 °F 26.8 °F 28.4 °F 75% 29.95 in - East 13.4 mph - N/A   Partly Cloudy
8:00 AM 33.8 °F 24.5 °F 26.6 °F 75% 29.95 in - East 13.4 mph - N/A   Scattered Clouds
8:30 AM 35.6 °F 25.3 °F 26.6 °F 70% 29.95 in - East 17.9 mph 24.6 mph N/A   Scattered Clouds
9:00 AM 35.6 °F 25.3 °F 26.6 °F 70% 29.95 in 2.8 mi East 17.9 mph - N/A   Clear
9:30 AM 35.6 °F 25.3 °F 24.8 °F 65% 29.95 in 3.1 mi East 17.9 mph - N/A   Clear
10:00 AM 37.4 °F 27.0 °F 26.6 °F 65% 29.95 in 3.1 mi East 20.1 mph 29.1 mph N/A   Clear
10:30 AM 39.2 °F 28.4 °F 21.2 °F 49% 29.95 in 5.6 mi ENE 24.6 mph 35.8 mph N/A   Clear
11:00 AM 41.0 °F 31.3 °F 19.4 °F 42% 29.95 in 6.2 mi East 22.4 mph 33.6 mph N/A   Clear
11:30 AM 41.0 °F 30.8 °F 21.2 °F 45% 29.95 in 6.2 mi ENE 24.6 mph 33.6 mph N/A   Clear
12:00 PM 42.8 °F 32.8 °F 21.2 °F 42% 29.92 in 6.2 mi ENE 26.8 mph 35.8 mph N/A   Partly Cloudy
12:30 PM 44.6 °F 35.6 °F 23.0 °F 43% 29.92 in 6.2 mi East 24.6 mph 31.3 mph N/A   Partly Cloudy
1:00 PM 46.4 °F 38.4 °F 24.8 °F 43% 29.92 in 6.2 mi East 22.4 mph 31.3 mph N/A   Partly Cloudy
1:30 PM 46.4 °F 38.0 °F 23.0 °F 40% 29.92 in 6.2 mi East 24.6 mph 33.6 mph N/A   Partly Cloudy
2:00 PM 48.2 °F - 21.2 °F 34% 29.89 in 6.2 mi ENE 22.4 mph 35.8 mph N/A   Partly Cloudy
2:30 PM 50.0 °F - 19.4 °F 30% 29.89 in 6.2 mi East 22.4 mph 31.3 mph N/A   Scattered Clouds
3:00 PM 50.0 °F - 17.6 °F 28% 29.89 in 6.2 mi ENE 22.4 mph 31.3 mph N/A   Mostly Cloudy
3:30 PM 51.8 °F - 19.4 °F 28% 29.86 in 6.2 mi ENE 22.4 mph 33.6 mph N/A   Overcast
4:00 PM 51.8 °F - 17.6 °F 26% 29.86 in 6.2 mi East 22.4 mph 33.6 mph N/A   Overcast
4:30 PM 50.0 °F - 19.4 °F 30% 29.86 in 6.2 mi East 22.4 mph 29.1 mph N/A   Overcast
5:00 PM 50.0 °F - 21.2 °F 32% 29.86 in 6.2 mi East 20.1 mph 26.8 mph N/A   Overcast
5:30 PM 50.0 °F - 21.2 °F 32% 29.86 in 6.2 mi East 17.9 mph 26.8 mph N/A   Overcast
6:00 PM 50.0 °F - 21.2 °F 32% 29.86 in 6.2 mi East 17.9 mph 26.8 mph N/A   Overcast
6:30 PM 48.2 °F - 21.2 °F 34% 29.86 in 6.2 mi East 20.1 mph - N/A   Overcast
7:00 PM 46.4 °F 39.3 °F 23.0 °F 40% 29.86 in 6.2 mi East 17.9 mph 26.8 mph N/A   Overcast
7:30 PM 46.4 °F 39.9 °F 24.8 °F 43% 29.86 in 6.2 mi East 15.7 mph 22.4 mph N/A   Mostly Cloudy
8:00 PM 44.6 °F 38.2 °F 24.8 °F 46% 29.89 in 6.2 mi East 13.4 mph - N/A   Mostly Cloudy
8:30 PM 44.6 °F 38.9 °F 26.6 °F 49% 29.89 in 6.2 mi East 11.2 mph - N/A   Mostly Cloudy
9:00 PM 42.8 °F 35.9 °F 26.6 °F 53% 29.89 in 6.2 mi East 13.4 mph - N/A   Mostly Cloudy
9:30 PM 42.8 °F 36.7 °F 24.8 °F 49% 29.89 in 4.3 mi East 11.2 mph - N/A   Mostly Cloudy
10:00 PM 42.8 °F 36.7 °F 24.8 °F 49% 29.89 in 3.7 mi ENE 11.2 mph - N/A   Overcast
10:30 PM 42.8 °F 36.7 °F 23.0 °F 46% 29.89 in 3.7 mi ENE 11.2 mph - N/A   Overcast
11:00 PM 42.8 °F 35.9 °F 23.0 °F 46% 29.89 in 3.7 mi ENE 13.4 mph - N/A   Overcast
11:30 PM 42.8 °F 35.9 °F 24.8 °F 49% 29.89 in 3.7 mi ENE 13.4 mph - N/A   Overcast